Hourly Data Report for October 11, 2016

All times are specified in Local Standard Time (LST). Add 1 hour to adjust for Daylight Saving Time where and when it is observed.

RANKIN INLET A
NUNAVUT

62°48'38.000" N
92°06'53.000" W
32.30 m
2303405
71083
YRT

Download Data

Hourly Data (October 2016)
Hourly Data Report for October 11, 2016
Temp Definition
°C
Dew Point Temp Definition
°C
Rel Hum Definition
%
Wind Dir Definition
10's deg

Wind Spd Definition
km/h
Visibility Definition
km
Stn Press Definition
kPa
Hmdx Definition


Wind Chill Definition


Weather Definition


TIME
00:00 Legend Double Dagger -5.8 -8.2 83 30 15 24.1 101.39   -12 Mainly Clear
01:00
02:00 Legend Double Dagger -4.1 -6.3 85 28 22 24.1 101.33   -11 LegendNANA
03:00 Legend Double Dagger -4.8 -7.1 84 30 21 16.1 101.30   -11 Snow
04:00 Legend Double Dagger -4.9 -7.5 82 29 18 16.1 101.29   -11 Snow
05:00 Legend Double Dagger -4.5 -7.0 83 30 21 16.1 101.26   -11 Snow
06:00 Legend Double Dagger -4.8 -6.5 88 30 17 24.1 101.23   -11 Snow
07:00 Legend Double Dagger -5.1 -6.6 89 29 17 24.1 101.21   -11 Snow
08:00 Legend Double Dagger -4.1 -6.7 82 27 12 24.1 101.16   -9 LegendNANA
09:00 Legend Double Dagger -3.6 -8.9 67 24 16 24.1 101.12   -9 Mostly Cloudy
10:00 Legend Double Dagger -3.6 -7.8 73 24 13 12.9 101.09   -8 Snow
11:00 Legend Double Dagger -3.5 -5.7 85 22 14 4.8 101.03   -9 Snow Grains
12:00 Legend Double Dagger -3.0 -5.2 85 19 7 16.1 100.97   -6 Snow
13:00 Legend Double Dagger -2.0 -3.4 90 16 9 4.8 100.90   -5 Snow
14:00 Legend Double Dagger -2.0 -3.0 93 35 12 16.1 100.88   -6 Snow
15:00 Legend Double Dagger -2.2 -3.8 89 36 5 24.1 100.84   -4 Mostly Cloudy
16:00 Legend Double Dagger -2.2 -3.9 88 3 4 24.1 100.81   -4 LegendNANA
17:00 Legend Double Dagger -2.1 -4.1 86 7 4 8.1 100.75   -4 Snow
18:00 Legend Double Dagger -0.8 -2.4 89 22 15 8.1 100.68   -5 Snow
19:00 Legend Double Dagger -0.7 -3.1 84 21 27 8.1 100.61   -7 Snow
20:00 Legend Double Dagger -0.6 -2.5 87 20 25 9.7 100.52   -7 Snow
21:00 Legend Double Dagger -0.2 -2.6 84 19 24 9.7 100.43   -6 Snow
22:00 Legend Double Dagger -0.6 -1.7 92 19 19 6.4 100.35   -6 Snow
23:00 Legend Double Dagger -0.3 -2.2 87 19 16 8.1 100.26   -5 Snow

Notes on Data Quality.

Legend

  • E = Estimated
  • M = Missing
  • NA = Not Available
  • ‡ = Partner data that is not subject to review by the National Climate Archives
Date modified: